FW6620 Weather Reports


time (UTC)temp
F
wind
direction
speed
knots
gust
knots
rain 1hr
in
rain 24hr
in
rain mn
in
humidity
%
barometer
mb
20260506060104 76 29 0.9 4.3 0.00 0.00 0.00 90 1008.9
20260506051047 77 38 0.0 4.3 0.00 0.00 0.00 89 1008.9
20260506050547 77 0 0.9 5.2 0.00 0.00 0.00 88 1008.8
20260506045050 77 0 0.0 5.2 0.00 0.00 0.00 88 1008.9
20260506044702 77 0 0.9 5.2 0.00 0.00 0.00 88 1008.9
20260506044049 77 24 0.9 5.2 0.00 0.00 0.00 88 1008.9
20260506043548 77 0 0.0 4.3 0.00 0.00 0.00 88 1008.9
20260506043050 77 20 0.0 4.3 0.00 0.00 0.00 87 1008.9
20260506042548 77 0 0.9 3.5 0.00 0.00 0.00 87 1008.8
20260506042047 77 24 0.9 4.3 0.00 0.00 0.00 87 1008.7
20260506041600 78 0 0.9 4.3 0.00 0.00 0.00 87 1008.7
20260506041047 78 17 0.0 5.2 0.00 0.00 0.00 87 1008.7
20260506040550 78 0 0.9 5.2 0.00 0.00 0.00 87 1008.7
20260506040050 78 20 0.9 3.5 0.00 0.00 0.00 87 1008.7
20260506035547 78 0 0.0 3.5 0.00 0.00 0.00 86 1008.5
20260506035047 78 0 0.9 5.2 0.00 0.00 0.00 86 1008.4
20260506034623 78 22 0.9 5.2 0.00 0.00 0.00 86 1008.4
20260506034046 78 0 0.9 5.2 0.00 0.00 0.00 86 1008.4
20260506033546 78 0 0.0 3.5 0.00 0.00 0.00 86 1008.5
20260506033101 78 0 0.0 2.6 0.00 0.00 0.00 86 1008.3
20260506032547 78 23 0.0 3.5 0.00 0.00 0.00 86 1008.3
20260506032047 78 0 0.0 4.3 0.00 0.00 0.00 85 1008.1
20260506031553 78 0 0.9 4.3 0.00 0.00 0.00 85 1008.0
20260506031047 78 27 0.9 4.3 0.00 0.00 0.00 85 1008.0
20260506030546 79 21 0.9 4.3 0.00 0.00 0.00 85 1008.0
20260506030053 79 0 0.9 4.3 0.00 0.00 0.00 85 1007.9
20260506025547 79 0 0.0 4.3 0.00 0.00 0.00 84 1008.1
20260506025052 79 24 0.0 2.6 0.00 0.00 0.00 84 1007.9
20260506024549 79 0 0.0 6.1 0.00 0.00 0.00 84 1007.8
20260506024047 79 0 0.9 6.1 0.00 0.00 0.00 83 1007.6
20260506023547 79 0 0.0 5.2 0.00 0.00 0.00 83 1007.5
20260506023108 79 24 0.0 5.2 0.00 0.00 0.00 83 1007.4
20260506022547 80 0 0.0 2.6 0.00 0.00 0.00 82 1007.2
20260506022046 80 24 0.0 1.7 0.00 0.00 0.00 82 1007.2
20260506021548 80 0 0.0 2.6 0.00 0.00 0.00 81 1007.0
20260506021047 80 0 0.0 2.6 0.00 0.00 0.00 81 1006.8
20260506020547 80 0 0.0 2.6 0.00 0.00 0.00 81 1006.8
20260506020051 80 0 0.0 2.6 0.00 0.00 0.00 81 1006.7
20260506015547 80 0 0.0 2.6 0.00 0.00 0.00 81 1006.8
20260506015047 80 24 0.0 2.6 0.00 0.00 0.00 81 1006.8
20260506014548 80 0 0.0 2.6 0.00 0.00 0.00 81 1006.8
20260506014046 80 0 0.0 2.6 0.00 0.00 0.00 81 1006.7
20260506013547 80 0 0.0 1.7 0.00 0.00 0.00 81 1006.7
20260506013050 80 0 0.0 0.9 0.00 0.00 0.00 80 1006.7
20260506012547 81 0 0.0 0.9 0.00 0.00 0.00 80 1006.6
20260506012048 81 0 0.0 0.0 0.00 0.00 0.00 80 1006.6
20260506011608 81 0 0.0 1.7 0.00 0.00 0.00 80 1006.7
20260506011047 81 0 0.0 1.7 0.00 0.00 0.00 80 1006.7
20260506010548 81 0 0.0 0.9 0.00 0.00 0.00 79 1006.7
20260506010100 81 0 0.0 0.9 0.00 0.00 0.00 80 1006.6
20260506005546 82 0 0.0 0.9 0.00 0.00 0.00 79 1006.7
20260506005047 82 0 0.0 0.0 0.00 0.00 0.00 79 1006.7
20260506004616 82 0 0.0 1.7 0.00 0.00 0.00 78 1006.7
20260506004048 82 0 0.0 1.7 0.00 0.00 0.00 78 1006.7
20260506003548 82 0 0.0 2.6 0.00 0.00 0.00 78 1006.6
20260506003104 82 0 0.0 1.7 0.00 0.00 0.00 78 1006.6
20260506002547 82 0 0.0 1.7 0.00 0.00 0.00 78 1006.6
20260506002048 82 0 0.0 1.7 0.00 0.00 0.00 78 1006.6
20260506001557 82 0 0.0 0.9 0.00 0.00 0.00 77 1006.6
20260506001047 83 0 0.0 2.6 0.00 0.00 0.00 77 1006.5
20260506000548 83 0 0.0 2.6 0.00 0.00 0.00 77 1006.4
20260506000053 83 24 0.0 0.9 0.00 0.00 0.00 77 1006.4
20260505235546 83 0 0.0 5.2 0.00 0.01 0.00 76 1006.5
20260505235048 83 24 0.9 5.2 0.00 0.01 0.00 75 1006.4
20260505234617 83 18 0.0 3.5 0.00 0.01 0.00 75 1006.4
20260505234048 83 0 0.0 3.5 0.00 0.01 0.00 76 1006.3
20260505233546 83 19 0.9 4.3 0.00 0.01 0.00 75 1006.1
20260505233049 83 0 0.9 4.3 0.00 0.01 0.00 75 1006.2
20260505232547 83 13 0.0 4.3 0.00 0.01 0.00 74 1006.2
20260505232047 83 17 0.9 4.3 0.00 0.01 0.00 75 1006.2
20260505231556 83 26 0.0 3.5 0.00 0.01 0.00 75 1006.3
20260505231048 83 26 0.0 3.5 0.00 0.01 0.00 74 1006.3
20260505230547 83 0 0.0 3.5 0.00 0.01 0.00 74 1006.2
20260505230054 83 26 0.0 4.3 0.00 0.01 0.00 74 1006.1
20260505225547 83 0 0.0 4.3 0.00 0.01 0.00 74 1006.0
20260505225047 83 19 0.0 3.5 0.00 0.01 0.00 74 1006.0
20260505224553 83 18 0.9 3.5 0.00 0.01 0.00 74 1006.1
20260505224045 83 26 0.9 3.5 0.00 0.01 0.00 74 1006.1
20260505223545 84 0 0.0 3.5 0.00 0.01 0.00 75 1005.9
20260505223051 84 24 0.9 3.5 0.00 0.01 0.00 75 1006.0
20260505222547 84 16 0.0 2.6 0.00 0.01 0.00 75 1006.0
20260505222047 84 0 0.0 2.6 0.00 0.01 0.00 75 1006.0
20260505221555 83 16 0.0 4.3 0.00 0.01 0.00 74 1006.0
20260505221046 83 16 0.9 5.2 0.00 0.01 0.00 74 1006.0
20260505220546 83 0 0.9 5.2 0.00 0.01 0.00 73 1006.1
20260505220105 83 12 0.9 6.1 0.00 0.01 0.00 73 1006.2
20260505215547 83 26 1.7 6.1 0.00 0.01 0.00 73 1006.2
20260505215047 84 16 1.7 6.1 0.00 0.01 0.00 72 1006.5
20260505214602 84 0 0.9 5.2 0.00 0.01 0.00 72 1006.6
20260505214046 84 25 0.9 6.1 0.00 0.01 0.00 72 1006.6
20260505213546 84 0 0.9 7.0 0.00 0.01 0.00 72 1006.6
20260505213101 84 37 0.0 7.0 0.00 0.01 0.00 73 1006.8
20260505212547 84 39 1.7 7.0 0.00 0.01 0.00 72 1006.8
20260505212045 84 26 0.9 6.1 0.00 0.01 0.00 72 1006.7
20260505211601 84 12 0.9 5.2 0.00 0.01 0.00 73 1006.7
20260505211047 84 37 0.9 5.2 0.00 0.01 0.00 73 1006.7
20260505210546 84 29 0.9 3.5 0.00 0.01 0.00 75 1006.8
20260505210053 84 0 0.9 3.5 0.00 0.01 0.00 75 1006.8
20260505205549 84 0 0.9 3.5 0.00 0.01 0.00 74 1006.9
20260505205047 83 0 0.9 5.2 0.00 0.01 0.00 75 1006.9
20260505204555 83 0 0.9 7.0 0.00 0.01 0.00 74 1006.9
20260505204047 83 28 0.9 7.0 0.00 0.01 0.00 76 1007.3
20260505203547 82 47 1.7 6.1 0.00 0.01 0.00 76 1007.5
20260505203054 82 33 0.0 4.3 0.00 0.01 0.00 76 1007.5
20260505202547 82 20 1.7 6.1 0.00 0.01 0.00 76 1007.6
20260505202046 82 23 0.9 7.0 0.00 0.01 0.00 76 1007.6
20260505201557 82 0 0.9 7.0 0.00 0.01 0.00 76 1007.7
20260505201047 81 27 0.9 5.2 0.00 0.01 0.00 77 1007.8
20260505200546 81 9 1.7 5.2 0.00 0.01 0.00 76 1007.8
20260505195545 81 12 1.7 7.0 0.00 0.01 0.00 77 1007.8
20260505195045 81 0 0.9 4.3 0.00 0.01 0.00 77 1008.0
20260505194553 81 0 0.0 5.2 0.00 0.01 0.00 79 1008.0
20260505194048 81 19 1.7 5.2 0.00 0.01 0.00 78 1008.1
20260505193545 81 19 0.0 3.5 0.00 0.01 0.00 78 1008.1
20260505193056 81 0 0.0 3.5 0.00 0.01 0.00 78 1008.1
20260505192547 81 18 0.9 4.3 0.00 0.01 0.00 79 1008.1
20260505192048 81 18 0.0 4.3 0.00 0.01 0.00 79 1008.1
20260505191556 81 24 0.9 3.5 0.00 0.01 0.00 80 1008.2
20260505191047 80 0 0.9 4.3 0.00 0.01 0.00 80 1008.2
20260505190550 80 23 0.0 5.2 0.00 0.01 0.00 80 1008.2
20260505190051 80 0 0.9 5.2 0.00 0.01 0.00 80 1008.3
20260505185546 80 18 0.9 5.2 0.00 0.01 0.00 80 1008.3
20260505185043 80 0 0.0 5.2 0.00 0.01 0.00 81 1008.4
20260505184558 79 53 0.0 4.3 0.00 0.01 0.00 82 1008.5
20260505184046 79 0 0.9 4.3 0.00 0.01 0.00 81 1008.6
20260505183545 79 0 0.9 4.3 0.00 0.01 0.00 82 1008.6
20260505183048 78 0 0.9 3.5 0.00 0.01 0.00 82 1008.8
20260505182545 78 0 0.0 4.3 0.00 0.01 0.00 83 1008.9
20260505182049 78 0 0.9 4.3 0.00 0.01 0.00 83 1009.0
20260505181551 78 0 1.7 4.3 0.00 0.01 0.00 84 1009.0
20260505181047 77 24 0.0 3.5 0.00 0.01 0.00 84 1008.9
20260505180548 77 24 0.9 3.5 0.00 0.01 0.00 84 1009.0
20260505180056 77 30 0.0 3.5 0.00 0.01 0.00 85 1009.1
20260505175547 76 30 1.7 3.5 0.00 0.01 0.00 85 1009.0
20260505175049 76 0 0.0 3.5 0.00 0.01 0.00 85 1009.3
20260505174607 76 19 1.7 3.5 0.00 0.01 0.00 85 1009.3
20260505174046 76 0 0.0 6.1 0.00 0.01 0.00 86 1009.4
20260505173546 76 0 0.9 6.1 0.00 0.01 0.00 85 1009.3
20260505173047 75 20 0.0 3.5 0.00 0.01 0.00 85 1009.4
20260505172545 75 22 0.0 3.5 0.00 0.01 0.00 86 1009.5
20260505172045 75 0 0.9 3.5 0.00 0.01 0.00 86 1009.5
20260505171549 75 26 0.9 2.6 0.00 0.01 0.00 86 1009.5
20260505171047 75 0 0.0 4.3 0.00 0.01 0.00 86 1009.6
20260505170546 75 26 0.0 4.3 0.00 0.01 0.00 87 1009.7
20260505170123 74 26 0.9 4.3 0.00 0.01 0.00 87 1009.6
20260505165547 74 0 0.9 4.3 0.00 0.01 0.00 87 1009.5
20260505165047 74 0 0.9 3.5 0.00 0.01 0.00 87 1009.5
20260505164551 74 0 0.0 1.7 0.00 0.01 0.00 88 1009.5
20260505164046 74 0 0.0 1.7 0.00 0.01 0.00 88 1009.6
20260505163546 74 0 0.0 1.7 0.00 0.01 0.00 88 1009.5
20260505163048 74 0 0.0 3.5 0.00 0.01 0.00 88 1009.4
20260505162545 73 42 0.9 2.6 0.00 0.01 0.00 88 1009.6
20260505162045 73 0 0.0 2.6 0.00 0.01 0.00 89 1009.6
20260505161554 73 0 0.0 2.6 0.00 0.01 0.00 89 1009.6
20260505161046 73 31 0.0 2.6 0.00 0.01 0.00 89 1009.7
20260505160549 73 35 0.0 3.5 0.00 0.01 0.00 89 1009.6
20260505153057 72 0 0.0 3.5 0.00 0.01 0.00 90 1009.8
20260505152548 72 33 0.0 3.5 0.00 0.01 0.00 90 1009.7
20260505152046 72 0 0.0 3.5 0.00 0.01 0.00 90 1009.7
20260505151551 72 33 0.0 1.7 0.00 0.01 0.00 90 1009.8
20260505151045 72 0 0.0 3.5 0.00 0.01 0.00 90 1009.5
20260505150546 72 0 0.0 3.5 0.00 0.01 0.00 90 1009.4
20260505140546 71 0 0.9 4.3 0.00 0.01 0.00 90 1009.2
20260505130112 71 0 0.0 3.5 0.00 0.01 0.00 91 1008.7
20260505124607 71 43 0.0 2.6 0.00 0.01 0.00 91 1008.5
20260505124048 71 0 0.0 2.6 0.00 0.01 0.00 91 1008.4
20260505123545 71 0 0.0 2.6 0.00 0.01 0.00 91 1008.4
20260505123116 71 46 0.0 2.6 0.00 0.01 0.00 90 1008.4
20260505122545 71 0 0.9 2.6 0.00 0.01 0.00 90 1008.3
20260505122046 71 29 0.0 3.5 0.00 0.01 0.00 90 1008.2
20260505121552 71 0 0.0 3.5 0.00 0.01 0.00 90 1008.1
20260505121047 71 29 0.0 3.5 0.00 0.01 0.00 90 1008.0
20260505120547 71 22 0.0 4.3 0.00 0.01 0.00 90 1008.0
20260505120057 71 24 0.0 4.3 0.00 0.01 0.00 90 1008.0
20260505115546 71 19 0.9 4.3 0.00 0.01 0.00 90 1007.9
20260505115048 71 24 0.0 2.6 0.00 0.01 0.00 90 1007.9
20260505114612 71 24 0.0 3.5 0.00 0.01 0.00 90 1008.0
20260505114048 71 0 0.9 4.3 0.00 0.01 0.00 90 1007.9
20260505113548 71 0 0.0 4.3 0.00 0.01 0.00 90 1007.9
20260505113058 71 22 0.9 4.3 0.00 0.01 0.00 89 1007.8
20260505112545 71 18 0.9 4.3 0.00 0.01 0.00 89 1008.0
20260505112048 71 22 0.9 3.5 0.00 0.01 0.00 89 1007.9
20260505111605 71 28 0.9 2.6 0.00 0.01 0.00 89 1007.9
20260505111049 71 0 0.0 4.3 0.00 0.01 0.00 89 1007.9
20260505110546 71 0 0.0 4.3 0.00 0.01 0.00 89 1008.1
20260505102045 71 23 0.9 3.5 0.00 0.01 0.00 89 1008.2
20260505101554 71 22 0.0 1.7 0.00 0.01 0.00 89 1008.1
20260505101048 71 0 0.0 1.7 0.00 0.01 0.00 89 1008.2
20260505100545 71 0 0.0 1.7 0.00 0.01 0.00 89 1008.3
20260505100052 71 0 0.0 3.5 0.00 0.01 0.00 88 1008.3
20260505095544 71 22 0.0 3.5 0.00 0.02 0.00 88 1008.1
20260505095045 71 0 0.0 2.6 0.00 0.02 0.00 88 1008.1
20260505094552 71 0 0.0 4.3 0.00 0.02 0.00 88 1008.1
20260505094045 71 22 0.0 6.1 0.00 0.02 0.00 88 1008.0
20260505093546 71 0 0.9 6.1 0.00 0.02 0.00 88 1008.3
20260505093054 71 35 0.0 3.5 0.00 0.02 0.00 88 1008.2
20260505092546 71 0 0.0 3.5 0.00 0.02 0.00 88 1008.3
20260505092046 71 0 0.0 5.2 0.00 0.02 0.00 88 1008.3
20260505091551 71 12 0.9 5.2 0.00 0.02 0.00 88 1008.3
20260505091047 71 0 0.9 5.2 0.00 0.02 0.00 88 1008.2
20260505090545 71 0 0.0 4.3 0.00 0.02 0.00 87 1008.3
20260505090058 71 25 0.0 4.3 0.00 0.02 0.00 87 1008.5
20260505085545 71 0 0.0 4.3 0.00 0.02 0.00 87 1008.3
20260505085045 71 0 0.0 4.3 0.00 0.02 0.00 87 1008.5
20260505084554 71 0 0.0 4.3 0.00 0.02 0.00 87 1008.5
20260505084045 71 0 0.9 7.0 0.00 0.02 0.00 87 1008.3
20260505083545 71 0 0.9 7.0 0.00 0.02 0.00 87 1008.4
20260505083101 71 22 0.9 6.1 0.00 0.02 0.00 87 1008.5
20260505082545 71 53 0.9 6.1 0.00 0.02 0.00 88 1008.6
20260505082046 71 22 0.9 6.1 0.00 0.02 0.00 88 1008.8
20260505081555 71 0 0.0 6.1 0.00 0.02 0.00 88 1008.9
20260505081046 71 53 0.9 5.2 0.00 0.02 0.00 88 1008.8
20260505080546 71 45 0.9 5.2 0.00 0.02 0.00 87 1008.9
20260505080050 71 47 0.9 4.3 0.00 0.02 0.00 87 1008.9
20260505075545 71 0 0.9 7.8 0.00 0.02 0.00 87 1009.0
20260505075045 71 15 0.9 7.8 0.00 0.02 0.00 87 1009.0
20260505074549 71 47 0.9 6.1 0.00 0.02 0.00 87 1009.0
20260505074045 71 26 0.9 6.1 0.00 0.02 0.00 87 1009.1
20260505073544 71 21 0.9 4.3 0.00 0.02 0.00 87 1009.1
20260505073056 71 24 0.9 5.2 0.00 0.02 0.00 87 1009.1
20260505072544 71 30 0.9 5.2 0.00 0.02 0.00 86 1009.2
20260505072045 71 53 0.0 5.2 0.00 0.02 0.00 87 1009.3
20260505071557 71 12 0.0 5.2 0.00 0.02 0.00 86 1009.3
20260505071045 71 16 0.9 4.3 0.00 0.02 0.00 86 1009.3
20260505070548 71 35 0.9 4.3 0.00 0.02 0.00 86 1009.4
20260505070055 71 0 0.9 5.2 0.00 0.02 0.00 86 1009.4
20260505065545 71 19 0.9 6.1 0.00 0.02 0.00 86 1009.5
20260505065045 71 20 1.7 6.1 0.00 0.02 0.00 86 1009.6
20260505064601 71 22 0.9 6.1 0.00 0.02 0.00 86 1009.6
20260505064045 71 20 0.9 6.1 0.00 0.02 0.00 86 1009.7
20260505063545 71 36 0.9 4.3 0.00 0.02 0.00 86 1009.7
20260505063056 71 30 0.9 7.8 0.00 0.02 0.00 86 1009.8
20260505062545 71 28 1.7 7.8 0.00 0.02 0.00 86 1009.8
20260505062045 71 32 0.0 7.8 0.00 0.02 0.00 86 1009.9
20260505061607 71 13 1.7 7.8 0.00 0.02 0.00 86 1010.0
20260505061044 72 39 0.9 5.2 0.00 0.02 0.00 86 1009.9
20260505060545 72 23 0.9 5.2 0.00 0.02 0.00 86 1010.0